This is the latest recevied weather packets stored in our database for station/object PP5FMM-10. If no packets are shown the sender has not sent any weather packets the latest 10 day(s).
| Time | Temp. | Humidity | Pressure | Rain* | Wind** | Luminosity | Snow |
|---|---|---|---|---|---|---|---|
| 1777808293 | 22.22° C | 64% | 1023.9 hPa | - | - | - | - |
| 1777807397 | 22.22° C | 67% | 1023.6 hPa | - | - | - | - |
| 1777807393 | 22.22° C | 67% | 1023.6 hPa | - | - | - | - |
| 1777806497 | 21.67° C | 64% | 1023.5 hPa | - | - | - | - |
| 1777806493 | 21.67° C | 64% | 1023.5 hPa | - | - | - | - |
| 1777805597 | 21.67° C | 65% | 1023.3 hPa | - | - | - | - |
| 1777805593 | 21.67° C | 65% | 1023.3 hPa | - | - | - | - |
| 1777804697 | 22.22° C | 66% | 1023.1 hPa | - | - | - | - |
| 1777804692 | 22.22° C | 66% | 1023.1 hPa | - | - | - | - |
| 1777803796 | 22.22° C | 66% | 1022.8 hPa | - | - | - | - |
| 1777803792 | 22.22° C | 66% | 1022.8 hPa | - | - | - | - |
| 1777802896 | 22.22° C | 67% | 1022.7 hPa | - | - | - | - |
| 1777802892 | 22.22° C | 67% | 1022.7 hPa | - | - | - | - |
| 1777801996 | 22.22° C | 68% | 1022.3 hPa | - | - | - | - |
| 1777801992 | 22.22° C | 68% | 1022.3 hPa | - | - | - | - |
| 1777801096 | 22.22° C | 68% | 1022.1 hPa | - | - | - | - |
| 1777801092 | 22.22° C | 68% | 1022.1 hPa | - | - | - | - |
| 1777800196 | 22.22° C | 67% | 1021.8 hPa | - | - | - | - |
| 1777800192 | 22.22° C | 67% | 1021.8 hPa | - | - | - | - |
| 1777799296 | 22.22° C | 69% | 1021.7 hPa | - | - | - | - |
| 1777799291 | 22.22° C | 69% | 1021.7 hPa | - | - | - | - |
| 1777798395 | 22.22° C | 69% | 1021.6 hPa | - | - | - | - |
| 1777798391 | 22.22° C | 69% | 1021.6 hPa | - | - | - | - |
| 1777797495 | 22.78° C | 70% | 1021.3 hPa | - | - | - | - |
| 1777797491 | 22.78° C | 70% | 1021.3 hPa | - | - | - | - |
* Rain since midnight (hover to see other rain measurements)
** Current wind speed in m/s (hover to see current wind gust speed)